Tracking 30157 objects as of 13-Feb-2025
HD Live streaming from Space Station
objects crossing your sky now

HULIANGWANG DIGUI-03

Track HULIANGWANG DIGUI-03 now!
10-day predictions


NORAD ID: 62325
Int'l Code: 2024-240C
Perigee: 1,115.0 km
Apogee: 1,136.0 km
Inclination: 86.5 °
Period: 107.7 minutes
Semi major axis: 7496 km
RCS: Unknown
Launch date: December 16, 2024
Source: People's Republic of China (PRC)
Launch site: Wenchang Satellite Launch Center (WSC)
Your satellite tracking list
Your tracking list is empty




NASA's NSSDC Master Catalog

Two Line Element Set (TLE):
1 62325U 24240C   25043.61700376  .00000082  00000-0  12773-3 0  9997
2 62325  86.5030 148.7515 0014030 132.7089 227.5236 13.37565615  7782
Source of the keplerian elements: AFSPC